Location: Altmatt
(47.1333°N, 8.7000°E)
Time: 02:56:44
(UTC+00:00)

Cosmos 1892 - Pass Details

Date: 13 July 2020
Orbit: 505 x 523 km, 82.5° (Epoch: 04 August)

Event Time Altitude Azimuth Distance (km) Brightness Sun altitude
Exits shadow 20:36:43 12° 171° (S) 1,626 4.7 -10.8°
Maximum altitude 20:40:10 54° 95° (E) 630 2.8 -11.2°
Drops below altitude 10° 20:43:54 10° 18° (NNE) 1,751 5.8 -11.6°
Sets 20:46:05 0° 14° (NNE) 2,647 6.9 -11.8°
